Location: Unspecified
(0.0000°N, 0.0000°E)
Time: 13:44:03
(UTC+00:00)

S-56A Canister/Altair - All Passes

Search period start: 21 February 2019 00:00
Search period end: 03 March 2019 00:00
Orbit: 631 x 2501 km, 38.9° (Epoch: 20 February)

Date Brightness Start Highest point End Pass type
(mag) Time Alt. Az. Time Alt. Az. Time Alt. Az.
21 Feb - 01:41:07 10° SW 01:47:44 66° SE 01:57:57 10° NE visible
21 Feb - 03:45:43 10° W 03:53:21 33° NNW 04:04:02 10° NNE visible
21 Feb - 05:59:21 10° NNW 06:02:20 11° NNW 06:05:28 10° N daylight
21 Feb - 10:22:00 10° N 10:28:03 13° NNE 10:33:38 10° NE daylight
21 Feb - 12:24:49 10° NNW 12:37:00 40° NE 12:45:46 10° E daylight
21 Feb - 14:31:28 10° WNW 14:42:45 61° SW 14:50:09 10° SE daylight
22 Feb - 01:08:55 10° SSW 01:15:01 53° SE 01:24:11 10° ENE visible
22 Feb - 03:12:51 10° W 03:20:08 37° NW 03:30:37 10° NNE visible
22 Feb - 05:24:43 10° NW 05:28:33 12° NNW 05:32:45 10° N visible
22 Feb - 09:49:14 10° N 09:54:09 12° NNE 09:58:50 10° NE daylight
22 Feb - 11:51:20 10° NNW 12:03:35 36° NE 12:12:45 10° E daylight
22 Feb - 13:57:35 10° NW 14:09:50 72° SW 14:17:50 10° SE daylight
22 Feb - 16:10:24 10° WSW 16:13:55 13° SW 16:16:59 10° SSW daylight
23 Feb - 00:36:49 10° SSW 00:42:22 41° SE 00:50:24 10° ENE night (unlit)
23 Feb - 02:40:07 10° WSW 02:47:01 41° NW 02:57:10 10° NNE visible
23 Feb - 04:50:35 10° NW 04:54:55 13° NNW 04:59:47 10° N visible
23 Feb - 09:17:00 10° N 09:20:11 11° NNE 09:23:18 10° NNE daylight
23 Feb - 11:17:55 10° NNW 11:30:05 32° NNE 11:39:34 10° E daylight
23 Feb - 13:23:44 10° NW 13:36:48 84° SW 13:45:25 10° SE daylight
23 Feb - 15:35:03 10° W 15:41:06 18° SW 15:45:58 10° S daylight
24 Feb - 00:04:49 10° SSW 00:09:47 31° SE 00:16:35 10° ENE night (unlit)
24 Feb - 02:07:28 10° WSW 02:14:00 47° NW 02:23:45 10° NE visible
24 Feb - 04:16:45 10° NW 04:21:22 14° NNW 04:26:42 10° N visible
24 Feb - 10:44:34 10° NNW 10:56:29 29° NNE 11:06:13 10° E daylight
24 Feb - 12:49:57 10° NW 13:03:39 85° NE 13:12:53 10° SE daylight
24 Feb - 15:00:15 10° W 15:08:17 23° SW 15:14:22 10° S daylight
24 Feb - 23:32:58 10° S 23:37:14 23° SE 23:42:42 10° E night (unlit)
25 Feb - 01:34:56 10° WSW 01:41:04 54° NW 01:50:22 10° NE visible
25 Feb - 03:43:11 10° NW 03:47:56 15° NNW 03:53:35 10° N visible
25 Feb - 10:11:17 10° NNW 10:22:49 26° NNE 10:32:39 10° E daylight
25 Feb - 12:16:14 10° NW 12:30:24 76° NE 12:40:16 10° SE daylight
25 Feb - 14:25:41 10° WNW 14:35:24 30° SW 14:42:30 10° SSE daylight
25 Feb - 23:01:21 10° S 23:04:41 17° SE 23:08:39 10° E night (unlit)
26 Feb - 01:02:27 10° WSW 01:08:15 63° NW 01:17:01 10° NE night (unlit)
26 Feb - 03:09:49 10° WNW 03:14:37 16° NNW 03:20:28 10° N visible
26 Feb - 09:38:07 10° NNW 09:49:05 24° NNE 09:58:51 10° E daylight
26 Feb - 11:42:35 10° NW 11:57:03 68° NE 12:07:30 10° ESE daylight
26 Feb - 13:51:17 10° WNW 14:02:27 37° SW 14:10:27 10° SSE daylight
26 Feb - 22:30:17 10° SSE 22:32:07 12° SE 22:34:05 10° ESE night (unlit)
27 Feb - 00:30:04 10° SW 00:35:31 76° NW 00:43:40 10° NE night (unlit)
27 Feb - 02:36:36 10° WNW 02:41:23 17° NNW 02:47:21 10° N visible
27 Feb - 09:05:05 10° NNW 09:15:19 21° NNE 09:24:46 10° ENE daylight
27 Feb - 11:09:00 10° NW 11:23:36 60° NE 11:34:37 10° ESE daylight
27 Feb - 13:17:01 10° WNW 13:29:26 45° SW 13:38:14 10° SSE daylight
27 Feb - 23:57:43 10° SW 00:02:53 87° SE 00:10:22 10° NE night (unlit)
28 Feb - 02:03:31 10° WNW 02:08:15 19° NNW 02:14:17 10° NNE visible
28 Feb - 08:32:12 10° N 08:41:28 19° NNE 08:50:22 10° ENE daylight
28 Feb - 10:35:31 10° NW 10:50:04 54° NE 11:01:35 10° ESE daylight
28 Feb - 12:42:51 10° WNW 12:56:17 53° SW 13:05:54 10° SSE daylight
28 Feb - 15:00:38 10° SW 15:01:28 10° SW 15:02:18 10° SW daylight
28 Feb - 23:25:27 10° SW 23:30:19 68° SE 23:37:06 10° NE night (unlit)
01 Mar - 01:30:34 10° WNW 01:35:13 21° NNW 01:41:15 10° NNE night (unlit)
01 Mar - 07:59:33 10° N 08:07:36 16° NNE 08:15:35 10° ENE daylight
01 Mar - 10:02:08 10° NNW 10:16:27 48° NE 10:28:23 10° ESE daylight
01 Mar - 12:08:49 10° WNW 12:23:04 62° SW 12:33:27 10° SE daylight
01 Mar - 14:22:58 10° WSW 14:28:23 14° SW 14:33:02 10° SSW daylight
01 Mar - 22:53:14 10° SSW 22:57:48 51° SE 23:03:50 10° ENE night (unlit)
02 Mar - 00:57:43 10° W 01:02:17 23° NNW 01:08:16 10° NNE night (unlit)
02 Mar - 07:27:13 10° N 07:33:42 14° NNE 07:40:17 10° NE daylight
02 Mar - 09:28:51 10° NNW 09:42:48 43° NE 09:55:02 10° ESE daylight
02 Mar - 11:34:54 10° NW 11:49:45 71° SW 12:00:52 10° SE daylight
02 Mar - 13:47:24 10° W 13:55:16 19° SW 14:01:43 10° S daylight
02 Mar - 22:21:06 10° SSW 22:25:20 38° SE 22:30:35 10° ENE night (unlit)
